Terminal Aerodrome Forecast
Issued by NWS Grand Rapids, MI

Home | Current Version | Previous Version | Text Only | Print | Product List | Glossary On
Versions: 1 2 3 4 5 6 7 8 9 10 11 12 13 14 15 16 17 18 19 20 21
000
FTUS43 KGRR 300300 AAC
TAFGRR
TAF AMD
KGRR 300300Z 3003/3024 28017G26KT P6SM OVC015
     FM300430 28015G23KT P6SM SCT015 BKN035
     FM300700 28010KT P6SM FEW035=

USA.gov is the U.S. government's official web portal to all federal, state and local government web resources and services.